EW9429 Weather Reports


time (UTC)temp
F
wind
direction
speed
knots
gust
knots
rain 1hr
in
rain 24hr
in
rain mn
in
humidity
%
barometer
mb
20260507065539 53 0.0 5.2 0.00 0.08 0.00 88 1006.2
20260507064539 53 0.0 3.5 0.00 0.08 0.00 89 1006.0
20260507063539 53 0.0 0.0 0.00 0.08 0.00 89 1006.0
20260507062539 53 0.0 2.6 0.00 0.08 0.00 90 1006.2
20260507061539 54 180 0.9 3.5 0.00 0.08 0.00 90 1006.2
20260507060539 54 0.0 0.0 0.00 0.08 0.00 91 1006.2
20260507055539 55 158 0.9 6.1 0.00 0.08 0.00 91 1006.0
20260507054539 55 0.0 0.0 0.00 0.08 0.00 92 1006.4
20260507053539 55 0.0 4.3 0.00 0.08 0.00 93 1006.4
20260507052539 56 180 0.9 2.6 0.00 0.08 0.00 94 1006.5
20260507051559 56 0.0 1.7 0.00 0.08 0.00 94 1006.5
20260507050600 56 0.0 0.0 0.00 0.08 0.00 94 1006.4
20260507045539 57 0.0 1.7 0.00 0.08 0.00 94 1006.3
20260507044539 57 0.0 3.5 0.00 0.08 0.00 95 1006.4
20260507043539 57 0.0 2.6 0.00 0.08 0.00 95 1006.4
20260507042538 57 180 0.9 4.3 0.00 0.08 0.00 95 1006.2
20260507041539 58 0.0 0.0 0.00 0.08 0.00 96 1006.4
20260507040538 58 0.0 2.6 0.01 0.08 0.00 96 1006.3
20260507035537 58 0.0 3.5 0.01 0.08 0.08 96 1006.4
20260507034537 59 135 0.9 5.2 0.01 0.08 0.08 96 1006.4
20260507033537 59 0.0 0.0 0.01 0.08 0.08 97 1006.1
20260507032537 60 0.0 3.5 0.01 0.08 0.08 97 1005.9
20260507031537 60 0.0 2.6 0.01 0.08 0.08 97 1005.8
20260507030537 60 0.0 0.0 0.00 0.07 0.07 97 1005.7
20260507025537 60 0.0 0.9 0.00 0.07 0.07 97 1005.5
20260507024538 60 0.0 0.0 0.00 0.07 0.07 97 1005.1
20260507023537 60 0.0 0.0 0.00 0.07 0.07 97 1005.2
20260507022537 60 0.0 1.7 0.00 0.07 0.07 97 1005.3
20260507021537 60 0.0 2.6 0.00 0.07 0.07 97 1005.3
20260507020537 60 0.0 0.0 0.00 0.07 0.07 97 1005.2
20260507015537 60 0.0 0.0 0.00 0.07 0.07 97 1005.2
20260507014558 60 0.0 1.7 0.00 0.07 0.07 97 1005.2
20260507013537 60 0.0 0.0 0.00 0.07 0.07 96 1005.1
20260507012537 60 0.0 0.9 0.00 0.07 0.07 96 1005.2
20260507011558 60 0.0 2.6 0.00 0.07 0.07 96 1005.2
20260507010537 60 0.0 2.6 0.00 0.07 0.07 96 1005.3
20260507005537 60 0.0 0.9 0.00 0.07 0.07 96 1005.3
20260507004558 60 0.0 0.9 0.00 0.07 0.07 96 1005.4
20260507003537 60 0.0 2.6 0.00 0.07 0.07 96 1005.3
20260507002537 60 0.0 0.0 0.00 0.07 0.07 96 1005.2
20260507001537 60 0.0 1.7 0.00 0.07 0.07 96 1005.2
20260507000537 60 0.0 0.0 0.01 0.07 0.07 96 1005.1
20260506235537 60 0.0 0.0 0.02 0.07 0.07 96 1004.9
20260506234557 60 0.0 0.0 0.03 0.07 0.07 96 1004.9
20260506233537 60 0.0 0.0 0.03 0.07 0.07 96 1004.9
20260506232537 60 0.0 0.0 0.03 0.07 0.07 96 1004.9
20260506231537 60 0.0 0.0 0.03 0.07 0.07 95 1004.8
20260506230537 60 0.0 0.0 0.02 0.06 0.06 95 1004.9
20260506225537 61 0.0 0.0 0.01 0.05 0.05 95 1004.9
20260506224557 61 0.0 0.0 0.00 0.04 0.04 95 1005.1
20260506223537 61 0.0 1.7 0.00 0.04 0.04 95 1005.1
20260506222537 61 0.0 2.6 0.00 0.04 0.04 95 1005.1
20260506221537 61 0.0 0.0 0.00 0.04 0.04 95 1005.2
20260506220537 61 0.0 1.7 0.00 0.04 0.04 94 1005.4
20260506215537 61 0.0 0.0 0.01 0.04 0.04 94 1005.3
20260506214537 61 0.0 1.7 0.01 0.04 0.04 94 1005.3
20260506213537 61 90 0.9 1.7 0.01 0.04 0.04 94 1005.6
20260506212537 61 0.0 0.0 0.01 0.04 0.04 94 1005.6
20260506211537 61 0.0 0.0 0.01 0.04 0.04 94 1005.7
20260506210537 61 90 0.9 2.6 0.01 0.04 0.04 93 1005.8
20260506205557 61 0.0 2.6 0.01 0.03 0.03 93 1005.9
20260506204537 61 90 0.9 3.5 0.01 0.03 0.03 93 1005.9
20260506203537 61 0.0 1.7 0.01 0.03 0.03 93 1006.0
20260506202537 61 0.0 1.7 0.02 0.03 0.03 92 1006.1
20260506201617 62 90 0.9 3.5 0.03 0.03 0.03 91 1006.1
20260506200537 62 90 0.9 2.6 0.03 0.03 0.03 91 1006.1
20260506195537 63 90 0.9 3.5 0.02 0.02 0.02 90 1006.1
20260506194537 63 90 0.9 2.6 0.02 0.02 0.02 89 1005.9
20260506193634 64 0.0 0.0 0.02 0.02 0.02 88 1006.1
20260506192557 65 0.0 1.7 0.01 0.01 0.01 86 1006.0
20260506191557 65 0.0 0.0 0.00 0.00 0.00 85 1006.0
20260506190537 66 0.0 1.7 0.00 0.00 0.00 83 1006.0
20260506185537 67 113 0.9 2.6 0.00 0.00 0.00 79 1006.1
20260506184537 68 113 1.7 5.2 0.00 0.00 0.00 75 1006.2
20260506183557 69 90 1.7 8.7 0.00 0.00 0.00 72 1006.4
20260506182617 70 158 1.7 5.2 0.00 0.00 0.00 70 1006.4
20260506181537 71 158 0.9 3.5 0.00 0.00 0.00 68 1006.4
20260506180557 71 113 1.7 5.2 0.00 0.00 0.00 64 1006.4
20260506175537 72 113 3.5 8.7 0.00 0.00 0.00 62 1006.4
20260506174537 72 113 4.3 8.7 0.00 0.00 0.00 60 1006.3
20260506173537 73 113 3.5 10.4 0.00 0.00 0.00 59 1006.4
20260506172638 73 90 2.6 7.0 0.00 0.00 0.00 59 1006.3
20260506171537 73 90 2.6 7.0 0.00 0.00 0.00 59 1006.6
20260506170537 73 90 2.6 6.1 0.00 0.00 0.00 59 1006.4
20260506165537 73 90 1.7 6.1 0.00 0.00 0.00 60 1006.6
20260506164537 72 90 0.9 5.2 0.00 0.00 0.00 63 1006.7
20260506163537 71 90 0.9 3.5 0.00 0.00 0.00 63 1006.9
20260506162537 71 90 1.7 5.2 0.00 0.00 0.00 63 1007.1
20260506161537 71 90 0.9 3.5 0.00 0.00 0.00 64 1007.1
20260506160537 71 90 1.7 5.2 0.00 0.00 0.00 65 1007.4
20260506155537 71 0.0 2.6 0.00 0.00 0.00 65 1007.6
20260506154537 71 90 0.9 3.5 0.00 0.00 0.00 65 1007.8
20260506153537 71 135 1.7 4.3 0.00 0.00 0.00 65 1007.8
20260506152557 71 180 1.7 5.2 0.00 0.00 0.00 65 1007.9
20260506151537 71 180 1.7 5.2 0.00 0.00 0.00 65 1008.1
20260506150537 71 90 1.7 6.1 0.00 0.00 0.00 66 1008.2
20260506145537 70 135 0.9 3.5 0.00 0.00 0.00 68 1008.2
20260506144537 70 113 0.9 5.2 0.00 0.00 0.00 69 1008.3
20260506143557 69 135 0.9 6.1 0.00 0.00 0.00 70 1008.4
20260506142557 69 135 0.9 7.0 0.00 0.00 0.00 72 1008.3
20260506141537 68 203 0.9 2.6 0.00 0.00 0.00 71 1008.3
20260506140537 68 90 2.6 6.1 0.00 0.00 0.00 71 1008.2
20260506135537 68 135 0.9 2.6 0.00 0.00 0.00 73 1008.4
20260506134537 67 90 2.6 5.2 0.00 0.00 0.00 73 1008.4
20260506133537 67 158 1.7 5.2 0.00 0.00 0.00 75 1008.4
20260506132537 66 90 1.7 7.0 0.00 0.00 0.00 76 1008.8
20260506131537 66 68 0.9 4.3 0.00 0.00 0.00 77 1008.9
20260506130537 65 135 1.7 4.3 0.00 0.00 0.00 77 1008.9
20260506125557 65 158 0.9 4.3 0.00 0.00 0.00 78 1009.0
20260506124537 65 68 0.9 3.5 0.00 0.00 0.00 79 1008.9
20260506123557 64 68 1.7 6.1 0.00 0.00 0.00 81 1008.8
20260506122557 64 68 1.7 6.1 0.00 0.00 0.00 81 1009.0
20260506121537 63 135 1.7 6.1 0.00 0.00 0.00 82 1009.1
20260506120557 63 135 0.9 2.6 0.00 0.00 0.00 83 1009.0
20260506115537 62 135 1.7 4.3 0.00 0.00 0.00 84 1008.9
20260506114537 62 113 0.9 2.6 0.00 0.00 0.00 85 1009.1
20260506113557 62 0.0 0.9 0.00 0.00 0.00 85 1009.1
20260506112537 61 0.0 2.6 0.00 0.00 0.00 85 1009.4
20260506111557 61 0.0 2.6 0.00 0.00 0.00 86 1009.5
20260506110557 61 90 0.9 3.5 0.00 0.00 0.00 86 1009.2
20260506105539 60 0.0 1.7 0.00 0.00 0.00 86 1009.3
20260506104539 60 0.0 0.9 0.00 0.00 0.00 86 1009.4
20260506103539 60 0.0 2.6 0.00 0.00 0.00 86 1009.3
20260506102539 60 0.0 2.6 0.00 0.00 0.00 86 1009.2
20260506101539 60 0.0 0.0 0.00 0.00 0.00 86 1009.4
20260506100537 60 0.0 0.0 0.00 0.00 0.00 85 1009.3
20260506095559 60 0.0 0.0 0.00 0.00 0.00 85 1009.3
20260506094537 60 0.0 1.7 0.00 0.00 0.00 85 1009.2
20260506093539 60 0.0 0.0 0.00 0.00 0.00 84 1009.0
20260506092557 61 0.0 0.0 0.00 0.00 0.00 84 1009.2
20260506091539 61 0.0 0.0 0.00 0.00 0.00 83 1009.2
20260506090539 61 0.0 0.9 0.00 0.00 0.00 82 1009.1
20260506085539 61 0.0 1.7 0.00 0.00 0.00 82 1009.2
20260506084539 61 0.0 1.7 0.00 0.00 0.00 81 1009.3
20260506083539 61 0.0 0.0 0.00 0.00 0.00 80 1009.3
20260506082619 62 0.0 1.7 0.00 0.00 0.00 80 1009.4
20260506081539 62 0.0 1.7 0.00 0.00 0.00 79 1009.4
20260506080539 62 0.0 1.7 0.00 0.00 0.00 79 1009.2
20260506072539 63 0.0 2.6 0.00 0.00 0.00 77 1009.1
20260506071539 63 90 0.9 2.6 0.00 0.00 0.00 76 1009.0
20260506071059 64 0.0 1.7 0.00 0.00 0.00 75 1008.8